Regional Weather Roundup
Issued by NWS Charleston, WV

Home | Current Version | Previous Version | Graphics & Text | Print | Product List | Glossary Off
Versions: 1 2 3 4 5 6 7 8 9 10 11 12 13 14 15 16 17 18 19 20 21 22 23 24 25 26 27 28 29 30 31 32 33 34 35 36 37 38 39 40 41 42 43 44 45 46 47 48 49 50

000
ASUS41 KRLX 222010
RWRRLX
West Virginia Regional Weather Roundup
National Weather Service Charleston WV
300 PM EST MON DEC 22 2014

Note: "fair" indicates few or no clouds below 12,000 feet with no
significant weather and/or obstructions to visibility.

WVZ003-222100-
Northern Panhandle of West Virginia

CITY           SKY/WX    TMP DP  RH WIND       PRES   REMARKS
WHEELING       SUNNY     51  32  48 SE9       29.96F
$$

WVZ009-222100-
Northwest West Virginia

CITY           SKY/WX    TMP DP  RH WIND       PRES   REMARKS
PARKERSBURG    MOSUNNY   53  35  50 E6        29.95F
$$

WVZ006-222100-
Western West Virginia

CITY           SKY/WX    TMP DP  RH WIND       PRES   REMARKS
HUNTINGTON     SUNNY     57  39  51 SE9       29.88F
$$

WVZ015-222100-
West Central West Virginia

CITY           SKY/WX    TMP DP  RH WIND       PRES   REMARKS
CHARLESTON     MOSUNNY   53  37  54 SE9       29.93F
$$

WVZ022-031-222100-
North Central West Virginia

CITY           SKY/WX    TMP DP  RH WIND       PRES   REMARKS
CLARKSBURG     CLOUDY    49  38  65 E8        29.96F
MORGANTOWN     CLOUDY    45  28  51 E8        29.99F
$$

WVZ025-035-042-045-222100-
Southern West Virginia

CITY           SKY/WX    TMP DP  RH WIND       PRES   REMARKS
BECKLEY        CLOUDY    41  34  76 SE7G22    29.94F
LOGAN            N/A     54  39  58 E7        29.90F
BLUEFIELD      CLOUDY    40  34  79 E8        29.95F
LEWISBURG      CLOUDY    38  34  87 E5        30.01F
$$

WVZ047-222100-
Northern Mountains of West Virginia

CITY           SKY/WX    TMP DP  RH WIND       PRES   REMARKS
ELKINS         CLOUDY    44  38  79 CALM      29.99F
$$

WVZ052-222100-
Eastern Panhandle of West Virginia

CITY           SKY/WX    TMP DP  RH WIND       PRES   REMARKS
MARTINSBURG    CLOUDY    32  28  85 N5        30.16F FOG
PETERSBURG     MIX PCPN  32  31  96 CALM      30.14S
$$


USA.gov is the U.S. government's official web portal to all federal, state and local government web resources and services.